Flag for Cyprus Weather past 2 weeks in Paphos, Cyprus

Now
64 °F

Passing clouds.


Feels Like: 64 °F
Forecast: 54 / 66 °F
Wind: 5 mph from Southeast

Location: Paphos Airport

Current Time: Mar 28, 2015 at 6:09:13 PM

Latest Report: Mar 28, 2015 at 6:00 PM


Visibility: N/A

Pressure: 29.86 "Hg

Humidity: 83%

Dew point: 59 °F

Location of PaphosLocation

Historic Weather in Paphos — Graph

°F

Paphos temperature yesterday

Maximum temperature yesterday: 77 °F (at 4:00 PM)
Minimum temperature yesterday: 57 °F (at 12:00 AM)
Average temperature yesterday: 69 °F

Past Weeks' High & Low Weather Summary

 TemperatureHumidityPressure
High77 °F (Mar 27, 4:00 PM)94% (Mar 14, 9:00 PM)30.15 "Hg (Mar 14, 9:00 PM)
Low46 °F (Mar 20, 2:00 AM)30% (Mar 27, 11:30 PM)29.71 "Hg (Mar 27, 11:00 PM)
Average60 °F67%30.02 "Hg
* Reported Mar 13 5:00 PM — Mar 28 5:00 PM, Paphos, Weather by CustomWeather, © 2015

Note: Actual official high and low records may vary slightly from our data, if they occured in-between our weather recording intervals... More about our weather records

Advertising

Paphos weather history for previous 24 hours

 ConditionsComfort  
Time TempWeatherWind HumidityBarometerVisibility
5:00 PM
Sat, Mar 28
66 °FScattered clouds.8 mph78%29.83 "HgN/A
4:30 PM68 °FScattered clouds.8 mph73%29.83 "HgN/A
4:00 PM68 °FPartly sunny.6 mph73%29.83 "HgN/A
3:30 PM68 °FPartly sunny.8 mph73%29.80 "HgN/A
3:00 PM68 °FPartly sunny.8 mph73%29.80 "HgN/A
2:30 PM70 °FBroken clouds.10 mph69%29.80 "HgN/A
2:00 PM70 °FBroken clouds.9 mph69%29.80 "HgN/A
1:30 PM70 °FBroken clouds.9 mph73%29.80 "HgN/A
1:00 PM68 °FBroken clouds.9 mph73%29.77 "HgN/A
12:30 PM66 °FBroken clouds.10 mph73%29.80 "HgN/A
12:00 PM66 °FBroken clouds.12 mph73%29.80 "HgN/A
11:30 AM66 °FBroken clouds.12 mph78%29.77 "HgN/A
11:00 AM64 °FBroken clouds.13 mph78%29.77 "HgN/A
10:30 AM63 °FLight rain. Partly sunny.13 mph77%29.77 "Hg4 mi
10:00 AM63 °FLight rain. More clouds than sun.15 mph83%29.77 "Hg5 mi
9:30 AM63 °FLight rain. More clouds than sun.14 mph83%29.77 "Hg4 mi
9:00 AM61 °FLight rain. More clouds than sun.14 mph83%29.77 "Hg4 mi
8:30 AM61 °FLight rain. More clouds than sun.17 mph83%29.77 "Hg4 mi
8:00 AM61 °FRain. More clouds than sun.10 mph88%N/A2 mi
7:30 AM61 °FRain. More clouds than sun.10 mph83%29.77 "Hg2 mi
7:00 AM63 °FLight rain. Partly sunny.8 mph77%29.77 "Hg2 mi
6:30 AM64 °FLight rain. Passing clouds.9 mph73%29.77 "Hg4 mi
6:00 AM64 °FLight rain. Clear.12 mph64%29.74 "HgN/A
5:30 AM64 °FLight rain. Clear.12 mph64%29.71 "HgN/A
5:00 AM64 °FLight rain. Clear.15 mph68%29.74 "HgN/A
4:30 AM68 °FMild.12 mph56%29.74 "HgN/A
4:00 AM68 °FMild.7 mph49%29.74 "HgN/A
3:30 AM68 °FMild.10 mph49%29.74 "HgN/A
3:00 AM70 °FMild.8 mph46%29.74 "HgN/A
2:30 AM66 °FMild.6 mph60%29.77 "HgN/A
2:00 AM68 °FPassing clouds.9 mph73%29.74 "HgN/A
1:30 AM68 °FClear.20 mph69%29.74 "Hg10 mi
1:00 AM72 °FClear.3 mph57%29.71 "Hg10 mi
12:30 AM75 °FClear.9 mph34%29.71 "Hg10 mi
12:00 AM77 °FClear.13 mph30%29.71 "Hg10 mi
11:30 PM
Fri, Mar 27
77 °FClear.13 mph30%29.71 "Hg10 mi
11:00 PM75 °FClear.15 mph31%29.71 "Hg10 mi
10:30 PM73 °FClear.16 mph33%29.74 "Hg10 mi
10:00 PM73 °FClear.16 mph36%29.77 "Hg10 mi
9:30 PM73 °FClear.15 mph36%29.80 "Hg10 mi
9:00 PM72 °FClear.9 mph38%29.83 "Hg10 mi
8:30 PM72 °FClear.12 mph38%29.83 "Hg10 mi
8:00 PM70 °FLight rain. Passing clouds.9 mph46%29.86 "HgN/A
7:30 PM70 °FLight rain. Clear.8 mph53%29.86 "HgN/A
7:00 PM72 °FLight rain. Clear.8 mph44%29.86 "HgN/A
6:30 PM70 °FLight rain. Clear.9 mph46%29.83 "HgN/A
6:00 PM70 °FSunny.8 mph53%29.83 "Hg10 mi
Weather by CustomWeather, © 2015

See weather overviewHow to use our weather pages